Regional Weather Roundup
Issued by NWS

Home | Current Version | Previous Version | Text Only | Print | Product List | Glossary Off
Versions: 1 2 3 4 5 6 7 8 9 10 11 12 13 14 15 16 17 18 19 20 21 22 23 24 25 26 27 28 29 30 31 32 33 34 35 36 37 38 39 40 41 42 43 44 45 46 47 48 49 50

000
ASUS43 KDMX 200901
RWRIA

WEATHER ROUNDUP FOR IOWA
NATIONAL WEATHER SERVICE DES MOINES IA
400 AM CDT THU JUL 20 2017

NOTE: "FAIR" INDICATES FEW OR NO CLOUDS BELOW 12,000 FEET WITH NO
SIGNIFICANT WEATHER AND/OR OBSTRUCTIONS TO VISIBILITY.

* - THESE STATIONS ARE NOT NWS STATIONS...THUS NOT UNDER NWS
QUALITY CONTROL.  THEY ALSO DO NOT REPORT WEATHER SUCH
AS PRECIPITATION OR FOG.

IAZ001>003-012>014-020>022-031>034-043>046-201000-
   NORTHWEST IOWA

CITY           SKY/WX    TMP DP  RH WIND       PRES   REMARKS
CARROLL *      CLOUDY    81  73  78 SW14      29.93F HX  85
CHEROKEE *     CLOUDY    78  76  93 NE3       29.92S HX  81
DENISON *      CLOUDY    81  72  74 SW8       29.94F HX  84
ORANGE CITY *  MOCLDY    75  72  88 NE6       29.94S
SHELDON *      CLOUDY    72  66  83 NE7       29.94S
SIOUX CITY     MOCLDY    85  73  67 N10       29.89R HX  91
SPENCER        CLOUDY    73  68  84 N7        29.95R
STORM LAKE *   CLOUDY    77  75  94 S7        29.92F
$$

IAZ055>058-069>071-079>083-090>094-201000-
   SOUTHWEST IOWA

CITY           SKY/WX    TMP DP  RH WIND       PRES   REMARKS
ATLANTIC *     MOCLDY    77  73  88 SW7       29.96R
AUDUBON *      MOCLDY    77  72  83 SW7       29.98R
CLARINDA *     CLOUDY    79  73  83 S7        29.99R HX  82
COUNCIL BLFS * MOCLDY    79  73  83 SW8       29.96R HX  82
CRESTON *      PTCLDY    77  72  83 SW9       30.00S
HARLAN  *      CLOUDY    75  73  94 CALM      30.00R
LAMONI         MOCLDY    78  72  81 S10       29.99S HX  80
RED OAK *      PTCLDY    77  73  88 S7        29.96R
SHENANDOAH *   PTCLDY    77  72  83 SW7       29.96R
$$

IAZ047>049-059>061-072>074-084-201000-
   CENTRAL IOWA

CITY           SKY/WX    TMP DP  RH WIND       PRES   REMARKS
AMES           PTCLDY    78  75  90 SW6       29.93F HX  81
ANKENY *       CLOUDY    82  73  74 SW8G15    29.94F HX  88
BOONE *        PTCLDY    79  73  83 SW7       29.94S HX  82
CHARITON *     CLOUDY    82  72  69 SW12      29.97R HX  87
DES MOINES     CLOUDY    83  72  69 SW12      29.93F HX  88
GRINNELL*      CLOUDY    79  72  78 SW9       29.95F HX  82
KNOXVILLE *    CLOUDY    82  70  65 SW12      29.94F HX  86
MARSHALLTOWN   PTCLDY    79  75  87 SW8       29.91F HX  83
NEWTON *       MOCLDY    81  73  78 SW9       29.94F HX  85
PELLA *        CLOUDY    82  70  68 SW7       29.96F HX  85
PERRY *          N/A     79  74  86 SW6       29.94S HX  82
$$

IAZ004>006-015-016-023>025-035-036-201000-
   NORTH CENTRAL IOWA

CITY           SKY/WX    TMP DP  RH WIND       PRES   REMARKS
ALGONA *       CLOUDY    75  72  88 NW6       29.93R
CLARION *      MOCLDY    77  77 100 S9        29.91F
ESTHERVILLE    MOCLDY    69  68  96 N5        29.93S
FORT DODGE *   CLOUDY    79  73  83 S6        29.93F HX  82
MASON CITY     MOCLDY    79  75  87 W10       29.92F HX  83
FOREST CITY *    N/A     73  70  88 NW12      29.94R
WEBSTER CITY * MOCLDY    75  73  94 SE5       29.91F
IOWA FALLS *     N/A     74  73  95 CALM      29.95S FOG
$$

IAZ007>011-017>019-026>030-037>042-050>054-066-201000-
   NORTHEAST IOWA

CITY           SKY/WX    TMP DP  RH WIND       PRES   REMARKS
CEDAR RAPIDS   PTCLDY    76  76 100 S10       29.92F
CHARLES CITY * CLOUDY    79  79 100 SW10G21   29.89F HX  83
CLINTON *      PTCLDY    72  69  90 S13       29.95F
DECORAH *      CLOUDY    70  70 100 E9        29.97R
DUBUQUE        CLOUDY    75  69  81 SW9G21    29.98R
MONTICELLO *   CLOUDY    75  72  88 SW5       29.93F
OELWEIN *      CLOUDY    73  73 100 S7        29.94F
WATERLOO       CLOUDY    74  71  91 S7        29.91F
$$

IAZ064-065-067-068-078-201000-
   EAST CENTRAL IOWA

CITY           SKY/WX    TMP DP  RH WIND       PRES   REMARKS
DAVENPORT      CLOUDY    76  70  82 S12       29.97F
IOWA CITY      CLOUDY    78  74  87 S8        29.94F HX  81
MT. PLEASANT * MOCLDY    78  72  82 S8        29.98F HX  81
MUSCATINE *    CLOUDY    77  73  88 S6        29.94F
QUAD CITIES    CLOUDY    78  70  76 S7        29.95F HX  80
$$

IAZ062-063-075>077-085>089-095>099-201000-
   SOUTHEAST IOWA

CITY           SKY/WX    TMP DP  RH WIND       PRES   REMARKS
BURLINGTON     CLOUDY    77  74  90 S7        29.99R
FAIRFIELD *    MOCLDY    81  73  78 S10       29.97F HX  85
FORT MADISON * CLOUDY    81  73  78 S9        30.00F HX  85
KEOKUK *       MOCLDY    79  73  83 S7        29.99S HX  82
OSKALOOSA *      N/A     79  72  79 SW6       29.97F HX  82
OTTUMWA        CLOUDY    81  74  79 S9        29.96F HX  86
WASHINGTON *   CLOUDY    79  75  89 SW10      29.97F HX  82
$$

ABBREVIATIONS USED IN REMARKS
   TC - TEMPERATURES IN CELSIUS
  WCI - WIND CHILL INDEX
   HX - HEAT INDEX
  VSB - VISIBILITY
$$





USA.gov is the U.S. government's official web portal to all federal, state and local government web resources and services.